Location: Obersdorf
(47.4079°N, 10.2781°E)
Time: 16:50:10
(UTC+01:00)

XW-2C - Visible Passes

Search period start: 03 December 2021 00:00
Search period end: 13 December 2021 00:00
Orbit: 505 x 523 km, 97.5° (Epoch: 03 December)

Date Brightness Start Highest point End Pass type
(mag) Time Alt. Az. Time Alt. Az. Time Alt. Az.
03 Dec ? 06:35:48 10° N 06:39:37 76° WNW 06:43:25 10° SSW visible
03 Dec ? 17:18:32 10° SSE 17:22:15 79° ENE 17:26:03 10° N visible
04 Dec ? 06:20:29 10° NNE 06:24:18 72° ESE 06:28:06 10° S visible
04 Dec ? 17:03:20 10° SSE 17:06:58 51° ENE 17:10:39 10° N visible
04 Dec ? 18:39:23 10° WSW 18:41:19 13° W 18:43:15 10° WNW visible
05 Dec ? 06:05:15 10° NNE 06:08:57 47° E 06:12:38 10° S visible
05 Dec ? 18:23:04 10° SW 18:25:51 20° W 18:28:39 10° NW visible
06 Dec ? 05:50:07 10° NNE 05:53:34 31° E 05:56:59 10° SSE visible
06 Dec ? 18:07:08 10° SSW 18:10:24 28° W 18:13:44 10° NW visible
07 Dec ? 05:35:07 10° NE 05:38:08 22° E 05:41:08 10° SE visible
07 Dec ? 07:08:47 10° N 07:12:13 32° WNW 07:15:38 10° SW visible
07 Dec ? 17:51:26 10° S 17:55:00 42° W 17:58:37 10° NNW visible
08 Dec ? 05:20:23 10° NE 05:22:40 15° E 05:24:57 10° SE visible
08 Dec ? 06:53:16 10° N 06:56:57 47° WNW 07:00:37 10° SW visible
08 Dec ? 17:35:54 10° S 17:39:37 65° W 17:43:24 10° NNW visible
09 Dec ? 05:06:37 10° E 05:07:10 10° E 05:07:42 10° E visible
09 Dec ? 06:37:50 10° N 06:41:40 72° WNW 06:45:27 10° SSW visible
09 Dec ? 17:20:32 10° SSE 17:24:17 83° ENE 17:28:05 10° NNW visible
10 Dec ? 06:22:29 10° NNE 06:26:20 76° ESE 06:30:08 10° S visible
10 Dec ? 17:05:18 10° SSE 17:08:58 54° ENE 17:12:41 10° N visible
10 Dec ? 18:41:32 10° WSW 18:43:20 13° W 18:45:09 10° WNW visible
11 Dec ? 06:07:13 10° NNE 06:10:57 49° E 06:14:39 10° S visible
11 Dec ? 18:25:07 10° SW 18:27:50 19° W 18:30:35 10° NW visible
12 Dec ? 05:52:03 10° NNE 05:55:33 33° E 05:59:01 10° SSE visible
12 Dec ? 18:09:08 10° SSW 18:12:22 27° W 18:15:40 10° NW visible
